Regional Weather Roundup
Issued by NWS Grand Forks, ND

Home | Current Version | Previous Version | Graphics & Text | Print | Product List | Glossary On
Versions: 1 2 3 4 5 6 7 8 9 10 11 12 13 14 15 16 17 18 19 20 21 22 23 24 25 26 27 28 29 30 31 32 33 34 35 36 37 38 39 40 41 42 43 44 45 46 47 48 49 50
000
ASUS43 KFGF 010731
RWRFGF
PRAIRIE TO PINES  WEATHER ROUNDUP
NATIONAL WEATHER SERVICE EASTERN NORTH DAKOTA/GRAND FORKS ND
100 AM CST SUN MAR 01 2015

 **SATELLITE DATA USED TO AUGMENT SKY COVER AT AUTOMATED STATIONS**
 *****  WEATHER ACROSS EASTERN NORTH DAKOTA  *****

CITY           SKY/WX    TMP DP  RH WIND       PRES   REMARKS
GRAND FORKS    CLEAR     -1  -6  79 SW6       30.17R WCI -13
GRAND FRKS AFB CLEAR      6  -2  72 W10       30.16S WCI  -9
GRAND FRKS NWS   N/A      1 N/A N/A W3          N/A
DEVILS LAKE    CLEAR      1  -6  71 SW9       30.12S WCI -14
FARGO          CLEAR      5  -2  72 SW7       30.21S WCI  -7
WAHPETON ARPT  SUNNY     -2  -6  84 W10       30.24R WCI -19
$$

 ***** WEATHER ACROSS CENTRAL AND WESTERN NORTH DAKOTA  *****

CITY           SKY/WX    TMP DP  RH WIND       PRES   REMARKS
BISMARCK       CLEAR      3  -1  83 W6        30.20F WCI  -8
MINOT          PTCLDY     7  -1  70 SW14      30.11S WCI -10
JAMESTOWN      CLEAR      1  -4  79 W8        30.17S WCI -13
MINOT AFB      PTCLDY     5  -1  77 W13       30.11S WCI -12
GARRISON         N/A      1  -3  83 W9        30.13F WCI -14
WILLISTON      MOCLDY     8   1  73 SW7       30.14S WCI  -3
DICKINSON      CLEAR     10   3  73 W13       30.11F WCI  -5
HETTINGER      PTCLDY     3  -1  83 NW6       30.16F WCI  -8
$$

 *****  OTHER AIRPORT OBSERVATIONS IN OUR AREA  *****

CITY           SKY/WX    TMP DP  RH WIND       PRES   REMARKS
WALHALLA         N/A      5   0  78 NW6       30.10S WCI  -6
GRAFTON AIRPOR NOT AVBL
VALLEY CITY AR FAIR       0  -2  92 W12       30.17S WCI -18
CANDO          FAIR      -4  -8  84 W10       30.12R WCI -21
CAVALIER APRT  FAIR       7   0  72 W10       30.12R WCI  -8
GWINNER        SUNNY      7   0  72 W10       30.22S WCI  -8
ROLLA          FAIR       1   0  92 W10       30.06S WCI -14
 ***** THE ABOVE OBSERVATIONS ARE NON NWS ARE NOT QUALITY
       CONTROLLED AND MAY MIS-REPORT RAIN FOR SNOW...
$$

  *****  WEATHER ACROSS NORTHERN MINNESOTA  *****

CITY           SKY/WX    TMP DP  RH WIND       PRES   REMARKS
FLAG ISLAND    PTCLDY    10   5  79 W12       30.04R WCI  -4
WARROAD        CLEAR      5   0  78 W10       30.08R WCI -10
ROSEAU         CLEAR      5   0  78 SW8       30.09S WCI  -8
HALLOCK        CLEAR     -6  -9  84 S6        30.12S WCI -18
THF RVR FALLS  PTCLDY     1  -2  85 SW8       30.14R WCI -12
BAUDETTE       PTCLDY    13   7  77 W10       30.05R WCI   0
WASKISH        CLOUDY    12  10  92 SW12      30.09S WCI  -2
CROOKSTON      CLEAR      0  -6  78 SW7       30.19R WCI -13
STEPHEN NDAWN    N/A      0  -6  78 SW7         N/A  WCI -13
GREENBUSH NDAW   N/A      0  -4  85 MISG        N/A
$$
  *****  WEATHER ACROSS CENTRAL AND WEST MINNESOTA  *****

CITY           SKY/WX    TMP DP  RH WIND       PRES   REMARKS
FOSSTON        PTCLDY    -4  -8  84 SW6       30.15R WCI -16
BEMIDJI        FLURRIES  11   6  81 W16       30.12R WCI  -6
PARK RAPIDS    FLURRIES  13   7  77 W13       30.12R WCI  -2
ELBOW LAKE     PTSUNNY   11   5  78 NW13      30.20R WCI  -5
WADENA         LGT SNOW  14  10  85 W8        30.15R WCI   3
DETROIT LAKES  CLEAR      9   3  78 W5        30.16F WCI   0
MOORHEAD       CLEAR      3   0  85 W7        30.22R WCI  -9
FERGUS FALLS   PTCLDY     3   0  85 W7        30.24S WCI  -9
MORRIS MN      CLOUDY    14   7  73 NW15      30.21R WCI  -1
STAPLES        CLOUDY    16  12  86 S6        30.15R WCI   7
$$
  *****  WEATHER ELSEWHERE ACROSS MINNESOTA  *****

CITY           SKY/WX    TMP DP  RH WIND       PRES   REMARKS
DULUTH         FLURRIES  11   2  67 SW15      30.16F WCI  -5
INTRNTL FALLS  LGT SNOW  16  11  80 SW9       30.05S WCI   4
ELY            CLOUDY    10   5  79 SW7       30.11F WCI   0
CLOQUET        FLURRIES  10   3  72 S12G18    30.17S WCI  -4
WHEATON        NOT AVBL
BRAINERD       CLOUDY    13   9  84 S10       30.17F WCI   0
HIBBING        FLURRIES  13   6  74 S5        30.13R WCI   5
ALEXANDRIA     CLOUDY    16  12  84 SW10      30.16S WCI   4
SAINT CLOUD    CLOUDY    14   9  80 S12       30.21F WCI   0
MINNEAPOLIS    CLOUDY    14   7  73 S9        30.29F WCI   2
$$

  *****  WEATHER ACROSS SOUTH DAKOTA  *****

CITY           SKY/WX    TMP DP  RH WIND       PRES   REMARKS
SIOUX FALLS    CLEAR     16  10  77 W3        30.24R
BROOKINGS      NOT AVBL
WATERTOWN      CLEAR     10   3  73 NW5       30.21R WCI   2
HURON          CLEAR      5   2  87 W3        30.27R
SISSETON         N/A      8   3  80 NW7       30.22S WCI  -3
ABERDEEN       PTCLDY     3  -3  76 W5        30.25S WCI  -6
MITCHELL       CLEAR     14   9  80 NW10      30.28R WCI   1
PIERRE         PTCLDY    11   4  73 W6        30.25S WCI   1
MOBRIDGE       PTCLDY     5   0  79 CALM      30.19S
RAPID CITY     CLOUDY    12   8  84 CALM      30.19R
$$

  *****  SOME WEATHER IN NEARBY STATES *****

CITY           SKY/WX    TMP DP  RH WIND       PRES   REMARKS
GLASGOW MT     LGT SNOW  18  14  84 W9        30.16S FOG     WCI   7
GREAT FALLS MT CLEAR     11   6  81 SW9       30.22R WCI  -2
CHEYENNE WY    LGT SNOW  16  12  84 CALM      29.96F FOG
SCOTTSBLUFF NE CLOUDY    23  13  65 NE8       30.10R WCI  14
OMAHA NE       CLOUDY    23  15  71 SW10      30.36S WCI  12
DES MOINES IA  FLURRIES  20  16  84 S7        30.37S WCI  11
DAVENPORT IA   MOCLDY     7   3  84 CALM      30.42R FOG
CHICAGO IL     LGT SNOW  18  14  84 S7        30.42F FOG     WCI   9
EAU CLAIRE WI  CLOUDY    13   2  61 S9        30.32F WCI   1
LA CROSSE WI   CLOUDY    14   5  67 S6        30.40F WCI   5
$$

  *****  SOME NATIONAL WEATHER *****

CITY           SKY/WX    TMP DP  RH WIND       PRES   REMARKS
LA GUARDIA NY  PTCLDY    26   4  38 NW5       30.72S WCI  20
RALEIGH NC     CLOUDY    31  17  56 NE5       30.65F
ATLANTA GA     DRIZZLE   40  36  86 E14       30.54S FOG
NEW ORLEANS LA CLOUDY    57  53  86 E9        30.31F
OKLAHOMA CITY  FRZ DRZL  28  24  85 CALM      30.31S FOG
ALBUQUERQUE NM CLOUDY    34  30  85 N6        30.02R
SALT LAKE CITY MOCLDY    35  31  85 CALM      29.93R
LOS ANGELES CA MOCLDY    54  47  77 NE5       29.91S
BOISE ID       CLEAR     30  24  78 SW5       30.03R
SEATTLE WA     PTCLDY    42  25  50 E3        30.24R
$$

*** WEATHER ACROSS MANITOBA...SASKATCHEWAN AND ONTARIO ***
                ***ONTARIO***

CITY           SKY/WX    TMP DP  RH WIND       PRES   REMARKS
GERALDTON      PTCLDY    12   5  73 S9        30.09F WCI   0
THUNDER BAY    FLURRIES  18   9  68 SW7       30.17F WCI   8
SIOUX LOOKOUT  FLURRIES  16   5  62 SW10G17   29.98F WCI   3
TORONTO        CLOUDY    10   3  72 W3        30.57R
BIG TROUT LK   CLOUDY     5   0  78 SW6       29.85F WCI  -6
PICKLE LAKE    NOT AVBL
DRYDEN         LGT SNOW  16  12  86 SW12      29.97F WCI   3
KENORA         LGT SNOW  14  10  85 W8        29.99S WCI   3
$$
                *** MANITOBA***

CITY           SKY/WX    TMP DP  RH WIND       PRES   REMARKS
BRANDON        CLEAR     -4  -8  84 W13       30.06S WCI -23
DAUPHIN        MOCLDY    10   5  79 W14       30.04R WCI  -5
ISLAND LAKE    FLURRIES   9   0  66 W9        29.88F WCI  -5
PILOT MOUND      N/A      3   0  85 W7          N/A  WCI  -9
THE PAS        CLEAR      3   1  92 W7        30.02R WCI  -9
THOMPSON       CLEAR      0  -6  78 NW8       29.96R WCI -15
WINNIPEG       CLEAR      1  -4  78 W12       30.07S WCI -15
LYNN LAKE      CLEAR     -6 -11  77 NW9       29.99R WCI -22
CHURCHILL      PTCLDY   -13 -20  70 NW22G29   29.89F WCI -40
GILLAM         FLURRIES  -4  -9  77 N5        29.92R WCI -15
$$
                ***SASKATCHEWAN***

CITY           SKY/WX    TMP DP  RH WIND       PRES   REMARKS
ESTEVAN        LGT SNOW  10   9  92 W12       30.08F WCI  -4
KINDERSLEY     MOCLDY    16  10  79 NW13      30.15R WCI   2
LLOYDMINSTER   CLEAR     10   7  85 W10       30.16R WCI  -3
PRINCE ALBERT  PTCLDY     9   9 100 W6        30.12R WCI  -1
REGINA         FLURRIES   7   5  92 W9        30.10R WCI  -7
YORKTON        FLURRIES   7   3  85 W8        30.03R WCI  -6
N. BATTLEFORD  CLEAR     10   9  92 NW7       30.18R WCI   0
LA RONGE       CLEAR      5   1  85 W6        30.08R WCI  -6
SASKATOON      PTCLDY     9   7  92 NW9       30.15R WCI  -5
SWIFT CURRENT  LGT SNOW  14  12  92 W12       30.10S WCI   0
$$
NOTE: THESE ARE AUTOMATED STATIONS WITH LIMITED QUALITY CONTROL
      "FAIR" INDICATES FEW OR NO CLOUDS BELOW 12,000 FEET WITH NO
      SIGNIFICANT WEATHER AND/OR OBSTRUCTIONS TO VISIBILITY.
      SKY/WX - SKY CONDITION AND SIGNIFICANT WEATHER.
      TMP - AIR TEMPERATURE.    DP   - DEWPOINT TEMPERATURE.
      RH  - RELATIVE HUMIDITY.  PRES - PRESSURE.
      HX  - HEAT INDEX.         WCI  - WIND CHILL INDEX.
$


USA.gov is the U.S. government's official web portal to all federal, state and local government web resources and services.